Date_and_time,latitude,longitude,wind_speed,RelWindDirFrom,WindDirFrom,air_pressure,air_temperature,relative_humidity,Temp,platform_speed_wrt_ground,air_pressure_at_mean_sea_level,platform_orientation
2019-02-04 23:50,50.6304433333333,-96.9807716666667,13.0,19.4,344,998.33,-24.0,64,0.29,0.0,1029.19,0.0
2019-02-05 00:00,50.630445,-96.9807716666667,13.3,18.2,339,998.45,-24.2,64,0.29,0.0,1029.33,360.0
2019-02-05 00:00,50.630445,-96.9807716666667,14.2,14.2,337,998.47,-24.3,64,0.28,0.0,1029.36,176.8
2019-02-05 00:10,50.630445,-96.98077,11.9,16.4,344,998.61,-24.3,65,0.29,0.0,1029.49,176.8
2019-02-05 00:20,50.630445,-96.98077,11.6,16.0,340,998.72,-24.4,65,0.29,0.0,1029.61,176.8
2019-02-05 00:30,50.630445,-96.9807716666667,10.1,14.8,334,999.01,-24.6,65,0.29,0.0,1029.92,176.8
2019-02-05 00:40,50.630445,-96.9807716666667,8.6,11.8,336,999.25,-24.7,65,0.28,0.0,1030.18,176.8
2019-02-05 00:50,50.630445,-96.9807716666667,9.2,13.6,330,999.31,-24.8,65,0.28,0.0,1030.27,176.8
2019-02-05 01:00,50.630445,-96.9807716666667,10.5,14.1,333,999.27,-24.9,65,0.28,0.0,1030.25,360.0
2019-02-05 01:10,50.6304566666667,-96.9807666666667,9.7,13.6,341,999.33,-25.0,65,0.28,0.0,1030.32,360.0
2019-02-05 01:20,50.6304266666667,-96.9807433333333,9.8,12.5,343,999.38,-25.1,65,0.28,0.0,1030.39,360.0
2019-02-05 01:30,50.630475,-96.980785,9.9,14.0,347,999.42,-25.2,66,0.28,0.0,1030.44,360.0
2019-02-05 01:40,50.6304383333333,-96.9807733333333,10.0,13.1,345,999.60,-25.3,66,0.28,0.0,1030.64,360.0
2019-02-05 01:50,50.6304433333333,-96.9807683333333,8.4,11.7,342,999.72,-25.5,66,0.28,0.0,1030.79,360.0
2019-02-05 02:00,50.6304433333333,-96.9807666666667,7.7,10.9,338,999.93,-25.6,66,0.28,0.0,1031.02,90.0
2019-02-05 02:10,50.6304616666667,-96.9807766666667,8.0,11.2,338,999.94,-25.8,66,0.28,0.0,1031.04,90.0
2019-02-05 02:20,50.6304566666667,-96.9807783333333,8.8,12.4,334,999.82,-25.9,66,0.28,0.0,1030.94,90.0
2019-02-05 02:30,50.630455,-96.9807733333333,7.5,11.3,328,999.93,-26.1,66,0.28,0.0,1031.06,90.0
2019-02-05 02:40,50.630455,-96.9807716666667,6.9,10.4,324,1000.03,-26.2,66,0.28,0.0,1031.18,90.0
2019-02-05 02:50,50.6304533333333,-96.9807683333333,7.3,10.9,325,1000.08,-26.2,66,0.28,0.0,1031.24,90.0
2019-02-05 03:00,50.630455,-96.98077,7.9,12.1,322,1000.15,-26.3,66,0.28,0.0,1031.33,14.5
2019-02-05 03:10,50.630455,-96.98077,7.8,11.0,324,1000.23,-26.3,66,0.28,0.0,1031.41,14.5
2019-02-05 03:20,50.630455,-96.9807716666667,8.9,11.9,334,1000.16,-26.2,66,0.28,0.0,1031.34,14.5
2019-02-05 03:30,50.6304433333333,-96.980755,8.1,12.2,331,1000.28,-26.1,66,0.28,0.0,1031.47,14.5
2019-02-05 03:40,50.6304433333333,-96.98077,6.2,9.3,318,1000.38,-26.2,67,0.28,0.0,1031.59,14.5
2019-02-05 03:50,50.6304466666667,-96.9807733333333,7.5,10.8,316,1000.45,-26.4,67,0.28,0.0,1031.69,14.5
2019-02-05 04:00,50.63045,-96.9807733333333,6.0,9.5,322,1000.62,-26.5,67,0.27,0.0,1031.88,360.0
2019-02-05 04:10,50.6304483333333,-96.98077,6.2,9.1,315,1000.77,-26.6,67,0.27,0.0,1032.05,360.0
2019-02-05 04:20,50.6304483333333,-96.98077,7.3,10.4,319,1000.73,-26.7,67,0.27,0.0,1032.02,360.0
2019-02-05 04:30,50.6304483333333,-96.98077,6.7,9.4,327,1000.75,-26.8,67,0.27,0.0,1032.04,360.0
2019-02-05 04:40,50.6304483333333,-96.9807683333333,7.1,10.7,321,1000.84,-26.8,67,0.27,0.0,1032.15,360.0
2019-02-05 04:50,50.6304483333333,-96.98077,6.9,9.9,323,1001.04,-26.9,67,0.27,0.0,1032.36,360.0
2019-02-05 05:00,50.63046,-96.9807933333333,5.6,8.3,321,1001.19,-26.8,67,0.27,0.0,1032.51,309.1
2019-02-05 05:10,50.6304616666667,-96.98079,5.8,7.9,323,1001.28,-26.8,67,0.27,0.0,1032.59,309.1
2019-02-05 05:20,50.63045,-96.9807683333333,5.8,9.0,324,1001.33,-26.8,67,0.27,0.0,1032.64,309.1
2019-02-05 05:30,50.6304483333333,-96.9807683333333,5.6,8.1,334,1001.41,-26.7,67,0.27,0.0,1032.73,309.1
2019-02-05 05:40,50.6304483333333,-96.980765,5.2,7.9,326,1001.51,-26.8,67,0.27,0.0,1032.85,309.1
2019-02-05 05:50,50.6304483333333,-96.980765,5.0,7.2,316,1001.72,-26.9,67,0.27,0.0,1033.08,309.1
2019-02-05 06:00,50.63044,-96.9807866666667,5.6,6.9,335,1001.43,-27.0,68,0.27,0.0,1032.79,240.8
2019-02-05 06:10,50.6304483333333,-96.980785,5.3,6.8,339,1001.29,-27.1,68,0.27,0.0,1032.66,240.8
2019-02-05 06:20,50.6304516666667,-96.9807833333333,4.9,6.7,334,1001.25,-27.2,68,0.27,0.0,1032.63,240.8
2019-02-05 06:30,50.63045,-96.9807816666667,5.6,7.5,337,1001.24,-27.2,69,0.27,0.0,1032.63,240.8
2019-02-05 06:40,50.63045,-96.98078,4.2,5.8,325,1001.32,-27.4,69,0.27,0.0,1032.72,240.8
2019-02-05 06:50,50.6304116666667,-96.98075,4.1,5.8,322,1001.46,-27.5,69,0.27,0.0,1032.87,240.8
2019-02-05 07:00,50.6304466666667,-96.98078,3.5,5.6,320,1001.53,-27.6,69,0.27,0.0,1032.95,234.7
2019-02-05 07:10,50.6304483333333,-96.9807733333333,3.5,5.9,306,1001.63,-27.6,70,0.27,0.0,1033.05,234.7
2019-02-05 07:20,50.6304433333333,-96.9807716666667,4.5,6.2,326,1001.45,-27.8,70,0.27,0.0,1032.87,234.7
2019-02-05 07:30,50.6304266666667,-96.9807633333333,6.6,7.9,344,1001.01,-28.0,71,0.27,0.0,1032.44,234.7
2019-02-05 07:40,50.6304633333333,-96.9807633333333,6.6,8.5,347,1000.92,-28.0,71,0.27,0.0,1032.35,234.7
2019-02-05 07:50,50.6304433333333,-96.9807633333333,6.1,8.0,334,1001.15,-27.9,70,0.27,0.0,1032.59,234.7
2019-02-05 08:00,50.6304383333333,-96.980755,4.4,5.8,315,1001.38,-28.1,70,0.27,0.0,1032.85,121.3
2019-02-05 08:10,50.6304383333333,-96.9807533333333,4.4,5.9,312,1001.46,-28.1,70,0.27,0.0,1032.93,121.3
2019-02-05 08:20,50.6304416666667,-96.9807566666667,4.6,7.3,318,1001.49,-28.3,71,0.27,0.0,1032.98,121.3
2019-02-05 08:30,50.6304416666667,-96.98076,5.3,7.4,321,1001.44,-28.4,71,0.27,0.0,1032.94,121.3
2019-02-05 08:40,50.6304416666667,-96.9807616666667,6.5,8.8,334,1001.16,-28.5,70,0.27,0.0,1032.66,121.3
2019-02-05 08:50,50.6304516666667,-96.9807716666667,4.8,6.5,325,1001.24,-28.5,70,0.27,0.0,1032.76,121.3
2019-02-05 09:00,50.6304333333333,-96.980765,4.8,7.0,334,1001.15,-28.5,70,0.27,0.0,1032.67,122.3
2019-02-05 09:10,50.6304483333333,-96.98077,5.8,7.3,340,1000.98,-28.5,70,0.27,0.0,1032.51,122.3
2019-02-05 09:20,50.6304516666667,-96.980765,6.3,7.8,342,1000.87,-28.4,70,0.27,0.0,1032.40,122.3
2019-02-05 09:30,50.6304516666667,-96.9807683333333,5.8,8.8,332,1000.96,-28.3,70,0.27,0.0,1032.48,122.3
2019-02-05 09:40,50.63045,-96.9807666666667,5.1,7.7,320,1000.89,-28.5,70,0.27,0.0,1032.42,122.3
2019-02-05 09:50,50.63045,-96.9807666666667,5.3,7.0,314,1000.87,-28.8,70,0.27,0.0,1032.43,122.3
2019-02-05 10:00,50.63045,-96.9807683333333,6.0,7.8,318,1000.84,-29.0,70,0.27,0.0,1032.41,66.4
2019-02-05 10:10,50.6304516666667,-96.9807683333333,6.9,10.4,327,1000.78,-29.1,70,0.27,0.0,1032.37,66.4
2019-02-05 10:20,50.63047,-96.9808016666667,5.9,8.3,328,1000.89,-29.1,70,0.27,0.0,1032.49,66.4
2019-02-05 10:30,50.6304316666667,-96.98076,8.1,10.9,338,1000.69,-28.8,70,0.27,0.0,1032.28,66.4
2019-02-05 10:40,50.63047,-96.980775,7.9,10.4,347,1000.77,-28.5,70,0.27,0.0,1032.33,66.4
2019-02-05 10:50,50.6304583333333,-96.9807733333333,8.5,10.9,349,1000.85,-28.2,70,0.27,0.0,1032.40,66.4
2019-02-05 11:00,50.630455,-96.9807733333333,7.8,9.9,350,1001.03,-28.0,70,0.27,0.0,1032.56,311.7
2019-02-05 11:10,50.630455,-96.980775,7.5,10.1,358,1001.16,-27.7,71,0.27,0.0,1032.68,311.7
2019-02-05 11:20,50.6304533333333,-96.980775,7.0,8.8,1,1001.27,-27.6,71,0.27,0.0,1032.78,311.7
2019-02-05 11:30,50.6304533333333,-96.980775,7.3,9.3,5,1001.35,-27.5,71,0.27,0.0,1032.87,311.7
2019-02-05 11:40,50.630455,-96.9807583333333,6.8,8.6,1,1001.45,-27.6,71,0.27,0.0,1032.99,311.7
2019-02-05 11:50,50.6304516666667,-96.9807533333333,6.2,8.3,354,1001.50,-27.6,71,0.27,0.0,1033.06,311.7
2019-02-05 12:00,50.6304566666667,-96.98077,3.9,5.7,327,1001.72,-27.6,71,0.27,0.0,1033.30,25.7
2019-02-05 12:10,50.630455,-96.9807666666667,3.8,5.0,346,1001.59,-27.5,71,0.27,0.0,1033.15,25.7
2019-02-05 12:20,50.6304466666667,-96.9807766666667,2.7,4.8,348,1001.68,-27.4,71,0.26,0.0,1033.22,25.7
2019-02-05 12:30,50.6304466666667,-96.9807716666667,2.1,3.5,349,1001.77,-27.3,71,0.26,0.0,1033.28,25.7
2019-02-05 12:40,50.6304483333333,-96.9807683333333,2.8,4.6,343,1001.79,-27.2,71,0.26,0.0,1033.28,25.7
2019-02-05 12:50,50.6304483333333,-96.98077,3.1,5.0,337,1001.87,-27.1,71,0.26,0.0,1033.34,25.7
2019-02-05 13:00,50.63045,-96.98077,4.0,5.3,320,1002.19,-27.1,71,0.26,0.0,1033.65,0.0
2019-02-05 13:10,50.63048,-96.9807933333333,3.5,4.9,326,1002.24,-27.0,71,0.26,0.0,1033.69,0.0
2019-02-05 13:20,50.6304633333333,-96.9807716666667,2.2,4.1,317,1002.14,-27.0,71,0.26,0.0,1033.59,0.0
2019-02-05 13:30,50.6304433333333,-96.9807533333333,2.4,3.6,341,1001.87,-27.0,71,0.26,0.0,1033.30,0.0
2019-02-05 13:40,50.6304433333333,-96.9807616666667,4.0,5.2,357,1001.73,-26.9,71,0.26,0.0,1033.16,0.0
2019-02-05 13:50,50.6304433333333,-96.9807633333333,4.7,5.8,3,1001.71,-26.8,71,0.26,0.0,1033.14,0.0
2019-02-05 14:00,50.630445,-96.980765,4.8,6.3,6,1001.75,-26.6,71,0.26,0.0,1033.15,165.5
2019-02-05 14:10,50.6304483333333,-96.9807633333333,4.2,5.7,20,1001.51,-26.5,72,0.27,0.0,1032.90,165.5
2019-02-05 14:20,50.6304466666667,-96.980765,4.9,5.9,12,1001.47,-26.4,72,0.27,0.0,1032.84,165.5
2019-02-05 14:30,50.6304333333333,-96.980765,4.3,6.0,5,1001.68,-26.3,72,0.27,0.0,1033.05,165.5
2019-02-05 14:40,50.63044,-96.9807583333333,3.2,4.8,307,1002.17,-26.4,71,0.27,0.0,1033.55,165.5
2019-02-05 14:50,50.6304383333333,-96.980755,3.3,4.3,307,1002.22,-26.4,71,0.27,0.0,1033.60,165.5
2019-02-05 15:00,50.6304416666667,-96.98076,3.8,5.0,310,1002.13,-26.4,70,0.27,0.0,1033.50,165.5
2019-02-05 15:10,50.6304433333333,-96.9807583333333,3.1,4.2,318,1002.00,-26.4,70,0.27,0.0,1033.36,165.5
2019-02-05 15:20,50.6304433333333,-96.9807583333333,3.3,4.9,5,1001.62,-26.3,70,0.27,0.0,1032.97,165.5
2019-02-05 15:30,50.6304433333333,-96.98076,4.6,6.5,358,1001.66,-26.1,70,0.27,0.0,1033.00,165.5
2019-02-05 15:40,50.6304433333333,-96.9807583333333,5.5,6.7,4,1001.56,-25.9,70,0.27,0.0,1032.87,165.5
2019-02-05 15:50,50.6304433333333,-96.98076,6.7,8.5,5,1001.43,-25.8,71,0.27,0.0,1032.72,165.5
2019-02-05 16:00,50.6304433333333,-96.98076,6.5,8.0,356,1001.58,-25.7,70,0.27,0.0,1032.86,360.0
2019-02-05 16:10,50.630445,-96.98076,6.1,7.4,353,1001.58,-25.5,70,0.27,0.0,1032.84,360.0
2019-02-05 16:20,50.6304433333333,-96.98076,5.3,7.0,348,1001.69,-25.0,68,0.27,0.0,1032.91,360.0
2019-02-05 16:30,50.6304433333333,-96.9807616666667,5.3,7.0,354,1001.84,-24.6,67,0.27,0.0,1033.05,360.0
2019-02-05 16:40,50.630445,-96.9807616666667,5.2,6.9,1,1001.77,-24.6,68,0.27,0.0,1032.97,360.0
2019-02-05 16:50,50.6304433333333,-96.9807616666667,5.6,7.0,5,1001.69,-24.2,67,0.27,0.0,1032.87,360.0
2019-02-05 17:00,50.630445,-96.9807616666667,6.2,7.5,8,1001.63,-23.9,66,0.27,0.0,1032.79,90.0
2019-02-05 17:10,50.630445,-96.9807633333333,6.0,7.7,5,1001.60,-23.9,67,0.27,0.0,1032.74,90.0
2019-02-05 17:20,50.6304433333333,-96.9807633333333,7.0,8.4,17,1001.31,-23.8,68,0.27,0.0,1032.43,90.0
2019-02-05 17:30,50.6304433333333,-96.9807633333333,7.9,10.6,17,1001.12,-23.7,69,0.27,0.0,1032.22,90.0
2019-02-05 17:40,50.6304433333333,-96.9807633333333,7.7,9.2,11,1001.19,-23.6,69,0.27,0.0,1032.28,90.0
2019-02-05 17:50,50.6304433333333,-96.9807633333333,6.5,8.5,14,1001.32,-22.9,67,0.27,0.0,1032.36,90.0
2019-02-05 18:00,50.6304433333333,-96.9807633333333,5.3,7.1,20,1001.35,-22.7,65,0.28,0.0,1032.37,270.0
2019-02-05 18:10,50.6304316666667,-96.9807483333333,5.8,7.5,17,1001.31,-23.1,67,0.28,0.0,1032.32,270.0
2019-02-05 18:20,50.6304466666667,-96.980765,6.4,7.8,14,1001.18,-23.1,67,0.28,0.0,1032.16,270.0
2019-02-05 18:30,50.63045,-96.98077,6.1,7.9,20,1000.92,-23.1,67,0.28,0.0,1031.89,270.0
2019-02-05 18:40,50.63045,-96.9807683333333,4.0,6.0,24,1001.08,-22.9,67,0.28,0.0,1032.02,270.0
2019-02-05 18:50,50.63045,-96.9807716666667,5.1,6.8,1,1000.91,-23.0,67,0.28,0.0,1031.83,270.0
2019-02-05 19:00,50.63045,-96.9807716666667,4.0,5.9,7,1000.82,-22.9,67,0.28,0.0,1031.72,347.4
2019-02-05 19:10,50.63045,-96.9807716666667,5.1,7.1,12,1000.64,-23.0,68,0.29,0.0,1031.55,347.4
2019-02-05 19:20,50.6304483333333,-96.9807733333333,3.6,5.8,4,1000.77,-22.9,68,0.29,0.0,1031.67,347.4
2019-02-05 19:30,50.63045,-96.980775,3.6,5.3,7,1000.68,-22.7,67,0.29,0.0,1031.56,347.4
2019-02-05 19:40,50.63045,-96.9807733333333,4.1,5.3,24,1000.40,-22.7,68,0.29,0.0,1031.23,347.4
2019-02-05 19:50,50.6304683333333,-96.9807733333333,4.2,6.1,10,1000.31,-22.8,68,0.29,0.0,1031.12,347.4
2019-02-05 20:00,50.630435,-96.98076,4.8,7.0,20,1000.10,-22.7,68,0.29,0.0,1030.93,142.0
2019-02-05 20:10,50.630435,-96.9807616666667,5.3,7.2,25,999.99,-22.7,69,0.29,0.0,1030.81,142.0
2019-02-05 20:20,50.6304383333333,-96.9807666666667,5.2,6.8,11,1000.01,-22.8,69,0.29,0.0,1030.84,142.0
2019-02-05 20:30,50.6304033333333,-96.9807316666667,6.1,7.7,360,999.98,-22.7,70,0.30,0.0,1030.80,142.0
2019-02-05 20:40,50.6304383333333,-96.9807683333333,5.6,8.0,1,1000.01,-22.6,69,0.30,0.0,1030.82,142.0
2019-02-05 20:50,50.6304383333333,-96.9807633333333,6.3,8.0,9,999.79,-22.6,69,0.30,0.0,1030.59,142.0
2019-02-05 21:00,50.6304566666667,-96.980745,7.2,8.8,7,999.55,-22.6,69,0.30,0.0,1030.34,49.4
2019-02-05 21:10,50.6304516666667,-96.98075,6.9,9.4,7,999.52,-22.5,70,0.30,0.0,1030.31,49.4
2019-02-05 21:20,50.6304483333333,-96.9807566666667,6.2,8.3,6,999.60,-22.6,69,0.30,0.0,1030.38,49.4
2019-02-05 21:30,50.6304483333333,-96.98076,6.6,8.4,5,999.61,-22.5,70,0.30,0.0,1030.38,49.4
2019-02-05 21:40,50.63043,-96.9807583333333,6.7,8.3,359,999.63,-22.4,70,0.30,0.0,1030.40,49.4
2019-02-05 21:50,50.6304333333333,-96.98076,7.5,9.3,350,999.73,-22.4,70,0.30,0.0,1030.50,49.4
2019-02-05 22:00,50.63046,-96.9807716666667,6.5,8.8,356,999.79,-22.3,70,0.30,0.0,1030.56,38.0
2019-02-05 22:10,50.6304566666667,-96.9807666666667,6.3,8.0,5,999.81,-22.3,70,0.31,0.0,1030.58,38.0
2019-02-05 22:20,50.630435,-96.980755,6.8,8.2,7,999.97,-22.4,70,0.31,0.0,1030.75,38.0
2019-02-05 22:30,50.6304466666667,-96.98077,5.9,7.7,8,1000.04,-22.2,70,0.31,0.0,1030.79,38.0
2019-02-05 22:40,50.63045,-96.98077,6.0,7.5,4,999.91,-22.1,70,0.31,0.0,1030.66,38.0
2019-02-05 22:50,50.6304466666667,-96.9807733333333,6.2,7.7,8,999.88,-22.0,69,0.31,0.0,1030.63,38.0
2019-02-05 23:00,50.6304483333333,-96.9807733333333,6.6,8.0,3,999.82,-22.0,69,0.31,0.0,1030.56,323.4
2019-02-05 23:10,50.6304483333333,-96.98077,5.6,6.9,5,999.77,-22.0,69,0.31,0.0,1030.51,323.4
2019-02-05 23:20,50.6304466666667,-96.9807716666667,4.7,6.2,3,999.85,-21.9,69,0.31,0.0,1030.58,323.4
2019-02-05 23:30,50.6304466666667,-96.9807716666667,5.2,6.5,3,999.73,-22.0,68,0.31,0.0,1030.46,323.4
